TimeMST,TemperatureF,Dew PointF,Humidity,Sea Level PressureIn,VisibilityMPH,Wind Direction,Wind SpeedMPH,Gust SpeedMPH,PrecipitationIn,Events,Conditions,WindDirDegrees,DateUTC
12:53 AM,27.0,16.0,63,30.22,10.0,SW,27.6,-,N/A,,Clear,220,2012-11-12 07:53:00
1:53 AM,27.0,16.0,63,30.22,10.0,SW,26.5,33.4,N/A,,Clear,220,2012-11-12 08:53:00
2:53 AM,27.0,16.0,63,30.22,10.0,SW,23.0,-,N/A,,Clear,220,2012-11-12 09:53:00
3:53 AM,28.0,16.0,61,30.22,10.0,SW,20.7,25.3,N/A,,Clear,220,2012-11-12 10:53:00
4:53 AM,28.9,16.0,58,30.22,10.0,SW,21.9,-,N/A,,Clear,220,2012-11-12 11:53:00
5:53 AM,28.0,17.1,63,30.23,10.0,SW,21.9,-,N/A,,Clear,220,2012-11-12 12:53:00
6:53 AM,28.0,17.1,63,30.22,10.0,SSW,23.0,-,N/A,,Clear,210,2012-11-12 13:53:00
7:53 AM,28.0,17.1,63,30.23,10.0,SSW,20.7,-,N/A,,Clear,210,2012-11-12 14:53:00
8:53 AM,30.9,19.0,61,30.22,9.0,SW,27.6,38.0,N/A,,Overcast,220,2012-11-12 15:53:00
9:53 AM,32.0,19.9,61,30.19,5.0,SSW,31.1,40.3,N/A,,Haze,210,2012-11-12 16:53:00
10:53 AM,32.0,19.0,59,30.21,9.0,SW,28.8,-,N/A,,Partly Cloudy,220,2012-11-12 17:53:00
11:53 AM,33.1,19.9,59,30.19,5.0,SW,29.9,38.0,N/A,,Haze,230,2012-11-12 18:53:00
12:53 PM,34.0,21.0,59,30.18,10.0,SW,26.5,34.5,N/A,,Overcast,230,2012-11-12 19:53:00
1:53 PM,36.0,24.1,62,30.16,10.0,SW,28.8,34.5,N/A,,Overcast,220,2012-11-12 20:53:00
2:53 PM,37.0,26.1,65,30.16,10.0,SW,26.5,32.2,N/A,,Scattered Clouds,220,2012-11-12 21:53:00
3:53 PM,37.9,26.1,62,30.16,10.0,SSW,17.3,-,N/A,,Clear,210,2012-11-12 22:53:00
4:53 PM,37.9,26.1,62,30.16,10.0,SW,21.9,-,N/A,,Partly Cloudy,220,2012-11-12 23:53:00
5:53 PM,37.9,27.0,65,30.15,10.0,SW,24.2,-,N/A,,Partly Cloudy,220,2012-11-13 00:53:00
6:53 PM,39.0,27.0,62,30.13,10.0,SW,31.1,-,N/A,,Overcast,220,2012-11-13 01:53:00
7:53 PM,37.9,27.0,65,30.17,10.0,SW,20.7,-,N/A,,Overcast,220,2012-11-13 02:53:00
8:53 PM,39.0,28.0,65,30.16,10.0,SW,23.0,-,N/A,,Overcast,220,2012-11-13 03:53:00
9:53 PM,39.0,27.0,62,30.15,10.0,SW,24.2,-,N/A,,Overcast,220,2012-11-13 04:53:00
10:53 PM,39.0,26.1,60,30.16,10.0,SW,23.0,-,N/A,,Overcast,230,2012-11-13 05:53:00
11:53 PM,37.9,26.1,62,30.17,10.0,SW,21.9,-,N/A,,Mostly Cloudy,220,2012-11-13 06:53:00